RH
25 25 28 24 24 21 23 28 52 61 68 70 86 90 93 88 75 67 72 74 45 44 43 45 52 52 54 60 70 71 76 87 89 99 97 98 97 97 96 95 85 81 88 79
28 29 22 19 18 18 20 25 65 78 70 82 88 90 86 84 79 72 74 68 46 47 50 48 56 54 55 64 73 79 78 80 80 88 92 95 96 97 93 92 88 85 85 80
31 24 18 19 19 17 17 27 71 74 74 76 80 88 91 86 76 85 85 76 63 47 48 51 56 57 56 69 77 78 83 77 82 88 96 95 96 98 96 95 94 88 81 80
24 18 18 20 19 15 20 14 43 69 71 83 75 90 94 84 85 88 87 82 74 45 42 48 54 58 56 67 68 77 80 86 89 90 87 80 94 95 95 94 90 88 79 84
21 18 17 17 15 12 14 45 58 57 75 74 83 90 88 82 87 82 86 80 74 61 42 46 54 56 54 63 69 72 78 87 88 90 89 90 91 95 95 95 90 92 90 83
21 16 14 13 12 11 36 51 63 77 88 90 69 87 95 92 79 74 78 82 73 69 64 54 52 53 54 58 71 72 81 89 86 87 92 90 81 89 93 94 95 96 94 90
26 24 14 11 15 17 23 50 72 88 83 81 73 80 88 78 74 72 80 82 82 74 74 70 63 54 58 62 71 76 86 93 90 86 92 90 85 87 88 89 94 94 93 94
35 34 18 14 16 18 27 28 58 68 75 71 51 81 83 79 82 82 78 87 86 80 88 86 75 60 61 60 64 74 86 94 90 87 90 90 88 96 88 89 93 95 95 93
38 34 20 18 15 18 25 33 30 51 39 64 94 94 86 86 87 87 91 91 93 94 95 90 88 88 78 70 67 72 86 93 90 92 94 94 93 88 77 81 90 96 94 86
41 36 28 21 20 24 27 23 28 33 48 53 94 93 97 92 91 90 90 97 97 97 98 94 96 97 95 96 87 88 94 97 95 95 97 95 94 91 85 88 91 94 91 90
52 42 30 29 32 31 30 33 30 32 40 46 92 92 88 87 84 88 83 88 96 95 98 97 97 98 97 95 95 94 93 90 90 93 95 94 96 94 95 96 95 90 92 91
41 44 52 38 26 21 27 31 39 39 35 72 94 99 87 84 84 78 79 76 89 92 95 97 98 98 98 98 97 97 96 94 93 96 98 98 96 96 95 94 94 91 89 90
37 40 61 44 32 25 24 26 38 34 42 75 90 98 90 87 84 76 78 84 86 89 91 95 96 98 98 98 99 96 97 98 97 96 98 98 98 96 94 94 94 94 91 93
41 47 59 63 48 38 33 22 27 34 55 80 94 97 98 89 88 77 80 83 84 85 85 87 94 97 98 98 99 98 98 98 98 98 98 99 98 99 99 97 96 95 92 88
36 45 47 37 28 23 24 19 18 25 49 52 93 88 88 82 81 77 72 74 78 82 80 77 78 82 86 92 99 99 99 99 98 99 98 99 98 98 98 98 99 98 96 94
34 40 45 39 25 27 24 20 26 54 67 80 89 93 74 69 67 70 65 66 68 71 69 74 77 73 78 78 78 87 94 94 92 98 98 98 97 98 98 97 98 98 99 96
47 45 47 47 34 31 30 27 22 38 68 77 92 87 73 74 68 66 61 54 56 62 57 57 59 57 59 72 79 81 84 84 90 88 86 94 95 96 97 98 97 97 98 99
45 50 50 55 40 42 27 25 21 40 63 68 80 78 72 68 61 56 52 52 55 53 54 56 60 58 54 57 65 77 74 71 71 73 80 80 90 93 94 95 96 97 98 99
34 50 54 52 66 37 28 25 27 64 86 72 77 75 72 66 55 56 46 45 49 55 59 62 57 59 58 61 70 71 72 70 70 72 76 77 76 80 86 92 95 97 98 98
38 47 46 58 56 47 45 28 28 45 89 75 70 73 70 60 78 69 48 43 46 51 54 58 59 60 64 73 77 77 80 79 82 81 81 81 81 79 79 76 83 90 92 90
52 54 47 58 58 53 44 43 41 42 59 74 68 70 68 71 72 55 46 45 44 51 55 59 64 71 75 77 80 85 88 91 88 83 82 82 82 82 77 78 79 80 82 91
71 60 65 61 63 70 47 46 61 66 88 79 85 79 82 69 51 49 46 45 47 56 56 57 68 77 81 81 82 89 90 87 84 84 83 84 83 78 74 84 76 75 76 83
64 66 77 74 82 64 56 62 69 72 82 86 78 72 64 61 56 50 50 50 52 55 60 64 71 79 84 82 82 90 91 88 88 89 90 88 84 80 79 83 78 76 78 78
67 60 78 76 71 64 51 50 53 58 68 67 65 70 64 62 57 63 58 52 50 57 62 68 75 84 88 83 85 91 89 90 92 93 94 94 93 86 84 79 78 81 74 75
82 77 70 70 67 56 49 49 44 45 48 50 58 56 55 55 59 49 54 59 58 64 67 74 81 86 86 85 91 90 87 87 94 94 95 95 95 94 90 82 83 77 74 78
84 78 91 92 80 66 57 52 50 40 44 42 39 39 45 50 55 56 56 62 60 66 73 78 81 80 81 84 90 89 87 90 92 93 91 94 92 95 84 84 79 76 80 76
Wind_Speed
2 5 5 10 6 6 2 8 3 7 9 8 4 6 9 5 11 15 12 8 11 18 18 18 19 18 15 10 8 8 8 8 6 3 2 2 2 1 0 3 4 5 5 4
7 5 10 7 7 7 4 7 4 12 9 3 5 7 5 6 11 16 14 6 12 14 13 15 18 17 15 11 10 8 8 9 6 4 3 3 3 2 1 1 2 4 5 5
7 12 7 5 9 8 9 6 6 8 10 13 6 4 2 1 13 11 11 7 7 21 18 16 18 16 13 12 12 12 9 8 6 5 4 3 2 3 1 1 2 3 5 5
6 15 10 7 10 7 9 6 12 18 6 6 6 3 5 7 9 17 16 8 5 14 18 18 17 16 15 13 13 13 9 8 6 7 3 5 4 4 3 3 2 3 5 5
10 3 7 8 12 9 11 7 14 15 5 8 5 3 3 13 10 13 15 11 3 6 13 19 19 18 15 14 14 13 10 8 7 7 6 4 4 2 2 2 4 4 3 4
9 10 6 11 12 12 11 14 10 5 4 1 9 4 4 11 14 13 11 12 5 5 9 6 19 18 15 13 12 12 10 8 7 6 7 8 7 6 4 4 4 3 2 2
7 7 6 6 7 3 7 7 2 4 4 7 10 5 6 8 10 12 16 17 3 4 8 6 13 17 14 15 14 13 11 7 8 8 7 8 7 7 7 5 4 4 3 2
3 9 3 4 8 8 4 8 7 5 5 6 5 6 2 3 5 9 6 9 8 4 4 6 2 14 16 17 16 14 12 8 9 7 7 6 7 4 5 5 4 4 4 4
3 6 6 3 5 9 5 2 3 6 2 4 6 3 6 5 7 5 4 5 7 7 4 7 6 6 6 6 13 14 12 7 4 6 7 6 6 6 6 6 4 4 4 3
0 4 3 8 3 4 9 4 5 4 5 4 2 9 8 10 9 7 8 7 8 5 2 3 5 8 11 7 2 8 9 9 7 6 4 2 6 6 4 4 6 6 6 4
2 2 9 1 2 4 3 3 5 3 5 6 4 0 5 13 12 10 6 6 7 9 3 5 4 5 13 7 4 8 9 11 7 6 2 1 4 6 6 6 6 7 5 6
2 3 1 5 9 3 5 4 5 5 4 3 5 3 7 13 11 11 6 2 5 5 8 7 7 6 10 8 5 5 7 9 5 4 4 5 3 6 6 6 6 6 7 6
3 4 4 12 11 10 6 3 5 4 3 1 7 4 8 10 11 14 8 6 6 6 9 6 7 6 7 8 3 3 5 10 5 2 5 6 5 2 5 6 6 6 5 6
6 3 5 6 7 5 9 6 3 5 4 3 2 14 12 13 10 13 10 8 6 7 10 8 6 6 5 6 6 3 3 9 3 3 5 7 6 5 6 3 5 6 6 6
5 4 4 3 9 10 8 5 11 5 7 6 15 16 17 15 14 13 11 11 10 8 10 10 8 6 7 6 6 4 3 5 4 5 4 4 3 7 8 7 7 7 4 6
3 2 3 2 13 12 6 9 10 11 11 12 15 14 16 16 15 14 12 12 11 11 11 10 9 8 7 6 7 7 6 6 5 6 5 4 3 10 7 7 7 8 8 5
4 4 4 3 5 8 6 6 3 5 6 21 12 11 17 18 16 16 14 13 13 12 11 11 9 7 7 6 6 8 6 6 6 6 6 4 5 7 5 5 7 7 8 5
4 3 3 1 9 5 3 5 3 8 13 7 17 22 18 16 15 13 14 14 10 9 11 9 8 8 10 9 8 5 7 9 11 11 9 9 6 4 5 6 7 8 7 7
6 5 3 5 5 4 4 6 7 3 5 6 22 19 17 15 16 11 15 16 14 8 8 7 8 7 9 11 10 10 10 10 10 8 8 8 8 9 8 6 6 3 4 4
8 7 6 1 1 3 1 5 8 2 4 5 21 20 21 20 13 9 16 18 14 13 11 9 8 8 10 7 7 9 7 7 7 7 6 6 6 6 6 6 6 2 3 3
4 4 4 1 1 2 3 9 4 6 7 9 12 19 19 12 4 14 16 12 15 15 13 9 9 8 6 6 8 8 7 7 5 6 6 7 7 6 4 4 2 4 4 5
4 4 0 2 2 3 6 7 5 4 7 8 8 6 8 12 16 15 14 14 14 15 11 11 10 7 6 7 9 7 7 5 6 6 5 6 6 5 6 7 6 6 5 6
2 6 5 5 5 5 6 5 3 3 8 4 10 9 17 18 15 14 12 11 11 12 8 8 10 8 6 7 7 7 2 4 6 7 7 7 7 6 6 6 6 5 5 4
8 2 4 5 7 3 5 5 5 5 9 9 10 10 11 12 10 10 10 11 12 9 9 7 9 8 6 5 6 5 4 5 6 6 6 6 7 8 7 5 4 4 5 5
4 5 2 3 5 4 7 3 8 7 8 9 7 7 9 13 9 11 8 8 10 9 7 10 9 7 6 5 6 5 4 5 5 5 5 6 5 6 7 6 4 4 5 2
1 5 4 4 5 4 3 5 2 7 6 8 8 7 8 8 12 8 10 9 11 11 10 9 7 8 6 7 5 4 4 5 5 5 4 4 4 4 5 5 7 9 9 15
Wind_Direction
249 77 202 238 204 228 326 323 135 112 156 163 177 128 142 161 160 169 223 258 173 161 158 146 152 154 158 151 142 151 145 153 144 100 143 99 212 161 286 238 160 158 140 139
14 231 228 233 252 255 252 217 137 104 44 135 125 94 83 177 175 173 207 317 170 157 161 147 146 158 160 150 151 157 171 155 167 153 143 153 156 211 183 195 186 179 159 154
162 240 223 234 268 277 260 176 206 140 109 47 109 127 116 9 162 188 244 300 306 157 159 155 154 161 154 147 157 163 173 161 157 131 116 80 75 47 89 192 195 215 175 172
220 255 243 228 249 212 257 207 177 150 152 158 234 213 192 181 164 195 219 258 308 185 162 160 157 160 165 161 161 159 167 149 146 142 150 162 157 154 190 184 195 188 182 171
240 256 223 237 232 208 243 152 144 136 93 119 211 105 267 159 193 198 220 251 235 328 177 161 163 165 171 157 169 166 165 152 158 158 166 157 139 144 155 175 165 183 202 182
247 266 194 223 250 221 124 99 60 53 97 235 186 147 202 184 195 183 202 263 225 322 342 214 167 166 172 166 162 164 166 163 166 158 157 161 164 168 147 171 162 182 194 172
317 274 246 207 257 359 155 120 63 29 32 233 131 136 245 201 162 177 189 210 218 306 315 317 179 171 166 171 171 167 163 166 167 164 161 174 176 186 180 173 166 163 145 199
243 323 222 224 184 198 161 152 158 147 185 243 115 202 227 65 79 89 89 86 32 316 221 135 199 183 172 175 175 169 167 164 167 170 172 180 173 184 204 177 164 187 171 176
218 262 310 235 244 146 265 94 162 137 31 120 124 66 64 97 66 92 130 109 75 43 41 171 76 83 102 177 178 175 168 148 169 179 163 179 188 185 188 189 182 185 193 190
79 293 286 300 117 14 135 172 54 1 147 216 256 159 154 169 140 110 73 61 87 84 122 46 111 81 76 33 118 115 112 104 104 76 57 288 205 202 208 175 218 202 203 191
31 92 295 353 98 153 18 68 72 110 134 166 140 206 283 162 134 109 83 99 105 107 183 119 91 85 95 71 77 110 108 107 90 84 54 99 268 238 199 198 213 202 178 190
339 140 358 259 286 324 147 141 113 120 272 104 106 81 76 110 120 120 128 92 96 96 90 77 69 95 94 100 52 100 109 91 79 55 20 357 277 227 211 205 202 200 185 200
329 2 26 349 356 4 9 358 140 138 101 98 114 148 128 118 133 123 115 101 96 96 84 66 66 59 93 109 142 73 99 93 70 314 59 12 331 296 228 207 198 195 210 201
84 75 115 153 215 237 295 338 336 107 102 126 143 135 147 139 139 123 120 118 104 94 89 82 62 69 92 121 121 127 104 98 133 77 51 43 9 43 41 15 251 192 210 209
116 136 123 255 311 334 252 337 326 160 161 131 170 147 146 146 140 127 125 130 125 119 105 94 88 79 75 90 102 131 89 80 87 91 67 62 352 49 43 48 20 338 224 228
15 219 112 3 320 331 341 356 20 90 85 68 119 118 139 138 129 132 134 135 123 116 105 103 96 88 78 74 95 90 72 62 58 68 56 53 16 56 39 31 42 12 350 329
72 96 81 230 334 323 17 339 16 45 137 140 153 159 145 144 142 144 144 137 127 129 114 107 94 73 60 67 76 81 78 83 72 70 58 58 55 74 44 34 55 31 344 324
97 79 86 169 49 313 257 326 8 115 155 126 115 141 144 143 137 135 142 135 110 106 111 99 89 73 55 48 44 64 57 54 52 45 32 23 23 44 73 52 45 39 348 311
118 104 69 134 175 268 26 2 335 91 27 132 130 136 138 135 119 110 122 119 115 107 103 96 93 86 66 59 56 60 47 48 45 34 29 20 20 19 12 5 25 61 290 317
74 79 109 71 144 184 308 292 329 107 36 166 138 146 147 147 136 155 137 122 108 108 107 97 80 68 66 63 77 71 51 45 33 16 13 10 13 12 17 9 352 291 275 282
26 19 123 114 227 315 303 325 331 98 211 155 163 156 156 152 154 135 131 120 118 123 120 110 96 94 96 82 77 62 54 43 15 17 9 2 358 346 346 328 293 308 317 316
130 120 238 71 80 324 326 9 90 234 4 148 123 124 112 119 116 125 124 126 123 125 123 115 107 100 89 85 84 67 45 353 18 20 12 354 349 345 342 339 328 338 347 345
4 168 171 147 207 261 331 93 66 125 106 44 101 120 128 129 133 135 137 128 121 125 122 113 113 100 74 81 92 86 36 39 23 14 357 348 339 337 336 340 335 339 346 343
338 45 98 73 326 1 78 69 75 99 104 109 114 121 127 124 129 130 132 136 130 130 118 116 104 98 90 83 87 99 49 39 38 21 358 348 353 346 345 343 346 341 341 342
222 12 359 39 12 360 7 58 115 94 115 122 135 136 145 138 142 136 133 127 126 124 114 113 118 122 127 105 88 79 63 48 24 10 358 352 350 340 333 338 324 334 316 323
310 171 125 187 226 188 280 332 121 117 134 147 137 125 146 157 162 152 149 140 136 129 125 118 130 132 141 116 105 75 46 49 38 13 355 341 337 338 356 351 343 343 343 332